Location: A�t �Alizem
(31.2076°N, 8.7872°W)
Time: 16:10:38
(UTC+00:00)

SL-24 R/B - Pass Details

Date: 27 November 2020
Orbit: 505 x 1002 km, 97.4° (Epoch: 26 January)

Event Time Altitude Azimuth Distance (km) Brightness Sun altitude
Exits shadow 18:51:27 - 6° (N) 2,304 6.8 -16.7°
Reaches altitude 10° 18:52:38 10° 5° (N) 1,793 6.2 -16.9°
Maximum altitude 18:56:24 64° 283° (WNW) 569 4.0 -17.7°
Drops below altitude 10° 18:59:59 10° 202° (SSW) 1,709 6.8 -18.4°
Sets 19:02:03 0° 199° (SSW) 2,593 7.7 -18.9°
